TIME,DELAY(SENSOR),PRES,OXYGEN,RAWTEMP,T(OPTODE),TCPHASE,FLUOR,BETA(BETA700),BETA(BETA412),BETA(BETA440),CDOM,C(CSC),ED(ED412.40),ED(ED444.00),ED(ED489.70),ED(ED554.30),LU(LU411.80),LU(LU443.40),LU(LU489.60),LU(LU554.10),COMP,TILTX,TILTY,CHECK
1358999004,5806,887.3699951171875000,46.7688903808593750,663.5734863281250000,4.5102558135986330,54.0471611022949200,53,100,87,79,79,15066,2147754870,2147424493,2148008000,2147873572,2147639131,2147052662,2148263753,2147192795,1277,4,13,13963
1359002600,5807,947.2500000000000000,53.4929199218750000,669.4649047851562000,4.3158721923828125,53.1866683959960940,52,99,85,78,80,15071,2147758217,2147426998,2148010468,2147876077,2147643730,2147053513,2148267913,2147196882,2915,4,13,35199
1359006200,5807,965.3099975585938000,53.8274688720703100,670.7745971679688000,4.2726058959960940,53.1619300842285160,53,100,89,79,81,15056,2147757723,2147423122,2148006784,2147873426,2147641170,2147061421,2148262573,2147194953,327,4,13,23238
1359009800,5808,1000.2899780273438000,54.3876495361328100,672.6494140625000000,4.2106399536132810,53.1069412231445300,51,98,87,80,79,15057,2147761334,2147423972,2148009270,2147874112,2147642578,2147057545,2148262125,2147193526,118,4,13,8882
1359013400,5809,1003.0100097656250000,54.3025398254394500,671.9227294921875000,4.2346611022949220,53.1121902465820300,53,97,86,80,81,15049,2147756973,2147424950,2148009060,2147872658,2147644470,2147056109,2148258587,2147194395,176,4,13,7470
1359017000,5813,1006.1400146484375000,54.1080207824707000,672.4144897460938000,4.2184047698974610,53.1463012695312500,52,97,88,78,80,15049,2147759442,2147425142,2148009764,2147876489,2147643245,2147053074,2148261650,2147193856,75,4,13,2598
1359020600,5811,1012.3499755859375000,54.0482788085937500,673.0562133789062000,4.1971859931945800,53.1617012023925800,52,98,90,77,81,15051,2147756992,2147427181,2148010139,2147877933,2147643931,2147056786,2148264978,2147193965,2867,4,13,26950
1359024200,5811,1015.9899902343750000,54.0758514404296900,672.2589721679688000,4.2235469818115230,53.1445693969726560,52,99,88,78,80,15050,2147758692,2147425892,2148008393,2147875721,2147640850,2147059382,2148257590,2147191899,214,4,13,36557
1359027800,5810,1009.4000244140625000,53.9745788574218750,671.9351806640625000,4.2342472076416020,53.1558685302734400,53,99,86,79,81,15050,2147762112,2147420315,2148008749,2147876544,2147639817,2147056073,2148260096,2147195666,3379,4,13,25216
1359031400,5812,998.7500000000000000,53.8511390686035160,673.5795288085938000,4.1798820495605470,53.1895904541015600,52,100,90,79,80,15049,2147757741,2147426048,2148008073,2147874130,2147643099,2147056502,2148263899,2147198921,277,4,13,26246
1359035000,5811,1008.2700195312500000,53.8325004577636700,673.5994873046875000,4.1792178153991700,53.1980514526367200,52,98,90,78,80,15051,2147761572,2147424859,2148006674,2147874825,2147641472,2147059648,2148261805,2147198162,355,4,13,14137
1359038600,5808,1006.6500244140625000,53.7931785583496100,674.3676147460938000,4.1538119316101070,53.2125511169433600,53,97,87,79,80,15048,2147758308,2147421933,2148010075,2147874770,2147643675,2147060598,2148260809,2147194834,3133,4,13,13277
1359042200,5810,998.2899780273438000,53.8669509887695300,676.0059204101562000,4.0995960235595700,53.2198905944824200,52,97,88,79,81,15041,2147758070,2147424374,2148010651,2147873097,2147642669,2147052800,2148264091,2147195126,2455,4,13,27190
1359045800,5808,1001.1500244140625000,53.7158317565918000,677.2996826171875000,4.0567569732666020,53.2575111389160160,53,97,87,78,80,15039,2147762176,2147423798,2148009737,2147873764,2147641792,2147054235,2148262491,2147195419,162,4,13,26498
1359049400,5806,1007.0999755859375000,53.7447509765625000,676.8842163085938000,4.0705180168151855,53.2488288879394500,52,97,84,79,81,15041,2147760704,2147423524,2148011163,2147873526,2147644324,2147054518,2148262601,2147196909,3142,4,13,4572
1359053000,5808,1019.2000122070312000,52.1731491088867200,675.0548706054688000,4.1310691833496090,53.4369697570800800,52,98,88,80,81,15034,2147760155,2147425792,2148006765,2147871634,2147640758,2147058962,2148265892,2147197595,553,4,13,53
1359056600,5812,1019.4199829101562000,53.4799690246582000,673.1303710937500000,4.1947350502014160,53.2403907775878900,52,99,84,79,81,15040,2147761536,2147422610,2148007926,2147874093,2147639652,2147054985,2148263744,2147196187,20,4,13,25606
1359060200,5811,1010.9600219726562000,52.2466583251953100,675.1806030273438000,4.1269087791442870,53.4326095581054700,52,98,85,81,80,15039,2147754331,2147421540,2148010468,2147873060,2147642331,2147063478,2148261997,2147194048,3452,4,13,45804
1359063800,5806,1017.8300170898438000,52.1931686401367200,675.2078247070312000,4.1260108947753910,53.4374313354492200,52,97,87,79,80,15038,2147757942,2147424704,2148007625,2147874944,2147645696,2147055899,2148258742,2147197220,2971,4,13,25975
1359067400,5814,1028.3399658203125000,53.6746292114257800,672.6066284179688000,4.2120509147644040,53.2067108154296900,52,97,88,78,81,15037,2147758006,2147419885,2148009188,2147875492,2147644114,2147055360,2148260781,2147197741,3294,4,13,23329
1359071000,5808,1025.2299804687500000,53.0371208190918000,671.5183715820312000,4.2480258941650390,53.2733192443847660,52,233,86,78,81,15035,2147759296,2147420781,2148010230,2147873462,2147642596,2147057270,2148260480,2147195766,21,4,13,14029
1359074600,5810,1020.6900024414062000,52.7472915649414060,671.6951293945312000,4.2421879768371580,53.3150596618652340,53,96,85,78,80,15035,2147759478,2147424694,2148010048,2147877129,2147642889,2147057728,2148262482,2147195300,393,4,13,63082
1359078200,5807,1014.3699951171875000,52.6719284057617200,673.2222290039062000,4.1916961669921875,53.3485794067382800,52,100,82,79,82,15034,2147759469,2147422747,2148008320,2147872539,2147643456,2147055963,2148257618,2147195428,3547,4,14,57106
1359081800,5809,1012.3200073242188000,52.3584403991699200,675.3660278320312000,4.1207771301269530,53.4161605834960940,52,98,88,80,81,15035,2147762176,2147424091,2148010624,2147873956,2147642642,2147058194,2148265929,2147195584,112,4,13,41699
1359085400,5809,1016.6699829101562000,51.4523391723632800,676.1436767578125000,4.0950322151184080,53.5514793395996100,53,97,88,79,81,15032,2147760877,2147423689,2148011785,2147872393,2147643145,2147053686,2148265755,2147191725,141,4,13,62730
1359089000,5810,1021.9000244140625000,52.6235809326171900,675.1782226562500000,4.1269907951354980,53.3809890747070300,53,97,88,79,80,15032,2147758820,2147423524,2148009947,2147874980,2147639963,2147058267,2148261330,2147194806,3462,4,13,3889
1359092600,5809,1018.0499877929688000,51.3560218811035160,675.2888183593750000,4.1233310699462890,53.5502891540527340,51,97,83,82,80,15033,2147762614,2147423030,2148011401,2147874962,2147643264,2147051081,2148260900,2147194212,38,4,13,27476
1359096200,5810,1021.8800048828125000,52.5376014709472660,674.5349731445312000,4.1482729911804200,53.3799095153808600,52,98,85,79,81,15031,2147759012,2147423981,2148010614,2147873325,2147641728,2147055789,2148258166,2147193618,40,4,13,37801
1359099800,5808,1020.2100219726562000,52.8087615966796900,672.9252929687500000,4.2015151977539060,53.3242607116699200,52,97,89,80,81,15030,2147758692,2147422573,2148010413,2147873792,2147640813,2147063533,2148262555,2147197339,319,4,13,64172
1359103400,5809,1021.6300048828125000,53.0942115783691400,673.8842773437500000,4.1697998046875000,53.3010597229003900,52,98,85,78,82,15028,2147757860,2147420918,2148012626,2147872914,2147640758,2147055177,2148264073,2147195904,84,4,13,62071
1359107000,5808,1020.8800048828125000,52.5527000427246100,673.3856811523438000,4.1862888336181640,53.3651390075683600,53,96,87,79,80,15032,2147760265,2147425865,2148011273,2147873846,2147639003,2147057755,2148262610,2147197549,635,4,13,60336
1359110600,5808,1032.4699707031250000,53.3233909606933600,672.4597778320312000,4.2169079780578610,53.2475204467773440,53,98,88,79,81,15030,2147758528,2147422573,2148008859,2147872868,2147639332,2147054125,2148258614,2147191881,3439,4,13,10278
1359114200,5808,1023.5399780273438000,52.5929298400878900,673.7174072265625000,4.1753177642822270,53.3620796203613300,52,99,89,80,81,15029,2147759808,2147425956,2148010102,2147876406,2147641197,2147053156,2148260772,2147197842,173,4,13,23352
1359117800,5809,1021.3800048828125000,53.0200805664062500,673.3939208984375000,4.1860179901123050,53.3045883178710940,53,97,85,79,80,15033,2147755986,2147422720,2148012187,2147875885,2147642770,2147057389,2148258404,2147195364,3540,4,13,61834
1359121400,5812,1017.4899902343750000,52.9884300231933600,674.0991821289062000,4.1626892089843750,53.3149490356445300,52,100,88,78,81,15030,2147757787,2147423332,2148010907,2147873526,2147639597,2147054774,2148254966,2147196297,3301,4,13,65414
1359125000,5808,1013.5999755859375000,51.1825294494628900,675.9902954101562000,4.1001110076904300,53.5807495117187500,53,99,86,80,80,15010,2147757083,2147420278,2148008896,2147872009,2147641892,2147058011,2148261366,2147194093,3047,4,13,62032
1359128600,5809,1015.2800292968750000,51.2901992797851560,676.2982177734375000,4.0899181365966800,53.5730209350585940,52,97,90,79,80,15008,2147757952,2147425609,2148011474,2147873920,2147643346,2147054290,2148262189,2147198857,150,4,13,29944
1359132200,5809,1016.3200073242188000,51.3258399963378900,677.1104125976562000,4.0630278587341310,53.5777397155761700,52,97,86,79,81,15008,2147759954,2147423926,2148009481,2147873865,2147642093,2147055908,2148258413,2147197110,447,4,13,63641
1359135800,5808,1012.6199951171875000,51.3653907775878900,677.4248046875000000,4.0526142120361330,53.5765190124511700,52,98,86,80,80,15008,2147757860,2147424539,2148010752,2147872493,2147640950,2147059556,2148262061,2147194870,494,4,13,8787
1359139400,5811,1019.0599975585938000,51.7279891967773440,676.5941772460938000,4.0801200866699220,53.5204315185546900,52,98,83,79,81,15003,2147760338,2147421385,2148009837,2147872822,2147642861,2147053888,2148263899,2147193179,3469,4,13,39756
1359143000,5808,1020.4500122070312000,51.1943588256835940,676.6771850585938000,4.0773701667785645,53.5910606384277340,52,99,86,79,80,15003,2147756059,2147424246,2148008704,2147874441,2147640813,2147055232,2148262720,2147198345,3335,4,13,50225
1359144055,5808,1021.5399780273438000,51.1300697326660160,676.6027221679688000,4.0798377990722660,53.5974197387695300,52,98,90,80,81,15045,2147756013,2147425590,2148011648,2147873453,2147644242,2147061732,2148262985,2147197769,3211,4,13,23085
